sat.trackr.live / text

‹ back to catalog

STARLINK-5170

NORAD 54062 · 2022-136M

PAYLOAD ACTIVE UNKNOWN

§ Identity

Operator
Country
US
Launch date
2022-10-20
Launch site
AFETR
Launch vehicle
Mass (kg)
RCS (m²)

Purposes: comms

External: N2YO · Heavens-Above · Gunter

§ Orbital elements

Epoch: 2026-05-24T23:50:25.635264Z

Period
95.44 min
Inclination
53.2143°
Eccentricity
0.0001114
Mean motion
15.08844844 rev/d
Perigee alt
539.0 km
Apogee alt
540.5 km
Semi-major
6,917.9 km
B*
-8.5177e-5
RAAN
1.5492°
Arg perigee
74.3770°
Mean anomaly
285.7345°
Rev number
19,836

§ Raw data

STARLINK-51701 54062U 22136M   26144.99335226 -.00001643  00000+0 -85177-4 0  99942 54062  53.2143   1.5492 0001114  74.3770 285.7345 15.08844844198360

JSON: /api/v1/satellites/54062 · /tle

For live sub-satellite position, see the globe view (requires WebGL).

§ Visibility from observer

Set your observer location to see the next 7 days of passes ≥ 10°. The values pass through the URL so the page stays shareable.

No JS? Fill the form by hand. The geolocation button needs JavaScript.